Regional Weather Roundup
Issued by NWS

Home | Current Version | Previous Version | Text Only | Print | Product List | Glossary On
Versions: 1 2 3 4 5 6 7 8 9 10 11 12 13 14 15 16 17 18 19 20 21 22 23 24 25 26 27 28 29 30 31 32 33 34 35 36 37 38 39 40 41 42 43 44 45 46 47 48 49 50
000
ASUS43 KOAX 240402
RWRNE

WEATHER ROUNDUP FOR NEBRASKA
NATIONAL WEATHER SERVICE OMAHA NE
1100 PM CDT THU OCT 23 2014

NOTES: SATELLITE DATA IS BEING USED TO AUGMENT CLOUD COVER ABOVE
       12000 FEET.
       "FAIR" INDICATES FEW OR NO CLOUDS BELOW 12,000 FEET WITH NO
       SIGNIFICANT WEATHER AND/OR OBSTRUCTIONS TO VISIBILITY.

  * THESE STATIONS DO NOT REPORT WEATHER SUCH AS RAIN...SNOW OR FOG.

NEZ001>004-019>022-054>056-240500-
NEBRASKA PANHANDLE

CITY           SKY/WX    TMP DP  RH WIND       PRES   REMARKS
SCOTTSBLUFF    MOCLDY    50  35  56 N3        30.02F
ALLIANCE       CLEAR     48  32  53 W7        30.00S
CHADRON        CLEAR     44  35  70 SW8       29.95R
KIMBALL        PTCLDY    48  32  53 W6        30.07R
SIDNEY         PTCLDY    46  35  65 SW12      30.06S
$$

NEZ057>060-069>072-079>082-240500-
SOUTHWEST NEBRASKA

CITY           SKY/WX    TMP DP  RH WIND       PRES   REMARKS
NORTH PLATTE   PTCLDY    59  51  75 S8        29.99S
IMPERIAL       PTCLDY    56  48  74 SW8       30.02S
LEXINGTON      PTCLDY    58  55  88 S7        30.00S
MCCOOK           N/A     59  55  87 SW8       30.03R
OGALLALA       PTCLDY    44  37  75 W3        30.01S
$$

NEZ005>010-023>029-035>040-094-240500-
NORTH CENTRAL NEBRASKA

CITY           SKY/WX    TMP DP  RH WIND       PRES   REMARKS
VALENTINE      PTCLDY    49  37  63 W8        29.92S
AINSWORTH      PTCLDY    56  44  64 S12       29.92S
BROKEN BOW     PTCLDY    58  53  84 S9        29.98S
O`NEILL        MOCLDY    57  55  91 S7        29.93S
ORD            PTCLDY    54  52  93 S6        29.96F
THEDFORD       CLEAR     58  46  62 S12       29.96S
$$

NEZ041-046>049-061>064-073>077-083>087-240500-
SOUTH CENTRAL NEBRASKA

CITY           SKY/WX    TMP DP  RH WIND       PRES   REMARKS
GRAND ISLAND   PTCLDY    59  56  89 S9        30.00F
AURORA         MOCLDY    58  56  94 S7        30.00F
HASTINGS       PTCLDY    55  52  89 S7        30.01S FOG
HEBRON         MOCLDY    56  53  90 S5        30.03S
HOLDREGE       CLEAR     55  54  94 S9        30.02S FOG
KEARNEY *      PTCLDY    54  52  94 S9        30.02R
YORK           CLOUDY    59  55  88 S8        30.01S
$$

NEZ011>018-030>034-042>045-240500-
NORTHEAST NEBRASKA

CITY           SKY/WX    TMP DP  RH WIND       PRES   REMARKS
NORFOLK        CLOUDY    59  55  87 S8        29.97F
ALBION         CLOUDY    54  51  91 SE6       29.98F FOG
BLAIR          MOCLDY    58  49  73 S6        30.00F
COLUMBUS *     CLOUDY    52  46  82 CALM      30.01S
FREMONT        MOCLDY    60  47  62 S6        30.01S
TEKAMAH        MOCLDY    50  47  89 S6        30.00S
WAYNE          MOCLDY    54  48  80 S6        29.99R
$$

NEZ050>053-065>068-078-088>093-240500-
SOUTHEAST NEBRASKA

CITY           SKY/WX    TMP DP  RH WIND       PRES   REMARKS
LINCOLN        CLOUDY    56  50  80 S3        30.02F
OMAHA EPPLEY   CLOUDY    57  51  80 S3        30.01F
BEATRICE       MOCLDY    56  52  87 CALM      30.03S
FALLS CITY     PTCLDY    61  59  93 S9        30.04S
NEBRASKA CITY  MOCLDY    57  50  79 S9        30.03F
PLATTSMOUTH    MOCLDY    58  47  68 S8        30.02S
$$

NEZ044-045-051>053-067-240500-
OMAHA AREA

CITY           SKY/WX    TMP DP  RH WIND       PRES   REMARKS
OMAHA EPPLEY   CLOUDY    57  51  80 S3        30.01F
BLAIR          MOCLDY    58  49  73 S6        30.00F
FREMONT        MOCLDY    60  47  62 S6        30.01S
OFFUTT AFB     MOCLDY    56  56  99 SE6       30.01S
PLATTSMOUTH    MOCLDY    58  47  68 S8        30.02S
WAHOO          FAIR      53  47  78 CALM      30.00F
$$



USA.gov is the U.S. government's official web portal to all federal, state and local government web resources and services.